Location: Newark
(39.5667°N, 8.9833°E)
Time: 05:37:36
(UTC+00:00)

Transit 2A - Pass Details

Date: 01 November 2019
Orbit: 601 x 957 km, 66.7° (Epoch: 12 November)

Event Time Altitude Azimuth Distance (km) Brightness Sun altitude
Rises 16:56:05 0° 248° (WSW) 3,276 11.5 -7.0°
Reaches altitude 10° 16:59:15 10° 266° (W) 2,277 10.1 -7.6°
Maximum altitude 17:02:54 19° 311° (NW) 1,664 8.3 -8.3°
Drops below altitude 10° 17:06:21 10° 357° (N) 2,127 8.2 -8.9°
Sets 17:09:12 0° 15° (NNE) 2,987 8.8 -9.5°
